Weather History for KSAT - December, 2014

Change the Weather History Date:

Wednesday, December 24, 2014

  Actual Average Record
Temperature  
Mean Temperature 48 °F 52 °F  
Max Temperature 59 °F 63 °F 83 °F (1964)
Min Temperature 37 °F 41 °F 15 °F (1983)
Degree Days  
Heating Degree Days 17 14  
Month to date heating degree days 144 294  
Since 1 July heating degree days 391 505  
Cooling Degree Days 0 0  
Month to date cooling degree days 7 7  
Year to date cooling degree days 3506 3124  
Moisture  
Dew Point 30 °F    
Average Humidity 52    
Maximum Humidity 70    
Minimum Humidity 33    
Precipitation  
Precipitation 0.00 in 0.07 in 1.37 in (1975)
Month to date precipitation 0.95 1.46  
Year to date precipitation 27.91 31.82  
Snow  
Snow 0.00 in - - ()
Month to date snowfall 0.0  
Since 1 July snowfall 0.0  
Snow Depth 0.00 in    
Sea Level Pressure  
Sea Level Pressure 30.09 in    
Wind  
Wind Speed 10 mph (WNW)    
Max Wind Speed 24 mph    
Max Gust Speed 31 mph    
Visibility 10 miles    
Events      
T = Trace of Precipitation, MM = Missing Value Source: NWS Daily Summary

Daily Weather History Graph

Daily Weather History Graph

Search for Another Location

Airport or City:

Trip Planner

Search our weather history database for the weather conditions in past years. The results will help you decide how hot, cold, wet, or windy it might be!

Date:

Astronomy

Dec. 24, 2014 Rise Set
Actual Time 7:25 AM CST 5:41 PM CST
Civil Twilight 6:59 AM CST 6:07 PM CST
Nautical Twilight 6:29 AM CST 6:37 PM CST
Astronomical Twilight 6:00 AM CST 7:06 PM CST
Moon 9:29 AM CST (12/24) 8:53 PM CST (12/24)
Length of Visible Light 11h 07m
Length of Day
10h 15m
Waxing Crescent, 10% of the Moon is Illuminated
Dec 24
Waxing Crescent
Dec 28
First Quarter
Jan 4
Full
Jan 13
Last Quarter
Jan 20
New

Hourly Weather History & Observations

Time (CST) Temp. Windchill Dew Point Humidity Pressure Visibility Wind Dir Wind Speed Gust Speed Precip Events Conditions
12:51 AM 43.0 °F 39.5 °F 30.9 °F 62% 30.03 in 10.0 mi WNW 5.8 mph - N/A   Clear
1:51 AM 43.0 °F 37.2 °F 30.9 °F 62% 30.03 in 10.0 mi WNW 10.4 mph - N/A   Partly Cloudy
2:51 AM 43.0 °F 39.5 °F 30.9 °F 62% 30.03 in 10.0 mi NW 5.8 mph - N/A   Partly Cloudy
3:51 AM 41.0 °F 36.4 °F 30.9 °F 67% 30.04 in 10.0 mi SSW 6.9 mph - N/A   Partly Cloudy
4:51 AM 39.9 °F 34.5 °F 30.9 °F 70% 30.04 in 10.0 mi NW 8.1 mph - N/A   Clear
5:51 AM 42.1 °F 34.9 °F 30.0 °F 62% 30.05 in 10.0 mi NW 13.8 mph 23.0 mph N/A   Partly Cloudy
6:51 AM 42.1 °F 35.7 °F 30.0 °F 62% 30.10 in 10.0 mi NW 11.5 mph - N/A   Clear
7:51 AM 41.0 °F 35.8 °F 30.0 °F 65% 30.13 in 10.0 mi NW 8.1 mph - N/A   Partly Cloudy
8:51 AM 44.6 °F 38.8 °F 30.2 °F 57% 30.16 in 10.0 mi NW 11.5 mph - N/A   Partly Cloudy
9:51 AM 48.9 °F - 30.9 °F 50% 30.15 in 10.0 mi NW 19.6 mph - N/A   Partly Cloudy
10:51 AM 51.1 °F - 30.9 °F 46% 30.15 in 10.0 mi NW 19.6 mph 24.2 mph N/A   Partly Cloudy
11:51 AM 54.0 °F - 30.9 °F 41% 30.14 in 10.0 mi WNW 16.1 mph 20.7 mph N/A   Partly Cloudy
12:51 PM 57.0 °F - 30.9 °F 37% 30.11 in 10.0 mi NNW 12.7 mph - N/A   Partly Cloudy
1:51 PM 57.9 °F - 30.0 °F 35% 30.08 in 10.0 mi West 15.0 mph 21.9 mph N/A   Partly Cloudy
2:51 PM 57.9 °F - 30.0 °F 35% 30.07 in 10.0 mi WNW 16.1 mph - N/A   Partly Cloudy
3:51 PM 57.9 °F - 28.9 °F 33% 30.07 in 10.0 mi WNW 9.2 mph - N/A   Partly Cloudy
4:51 PM 57.0 °F - 28.0 °F 33% 30.07 in 10.0 mi NW 10.4 mph - N/A   Partly Cloudy
5:51 PM 52.0 °F - 28.0 °F 40% 30.07 in 10.0 mi WNW 5.8 mph - N/A   Partly Cloudy
6:51 PM 50.0 °F - 28.0 °F 43% 30.09 in 10.0 mi West 3.5 mph - N/A   Clear
7:51 PM 45.0 °F 41.8 °F 30.0 °F 56% 30.10 in 10.0 mi NW 5.8 mph - N/A   Clear
8:51 PM 44.1 °F 41.5 °F 30.0 °F 58% 30.10 in 10.0 mi WNW 4.6 mph - N/A   Clear
9:51 PM 43.0 °F - 28.9 °F 58% 30.09 in 10.0 mi Calm Calm - N/A   Clear
10:51 PM 39.0 °F 35.7 °F 30.0 °F 70% 30.09 in 10.0 mi WNW 4.6 mph - N/A   Clear
11:51 PM 37.9 °F 34.4 °F 28.9 °F 70% 30.09 in 10.0 mi NW 4.6 mph - N/A   Clear